CZ-3B DEB, 40181

Orbit data source: Space-Track

CZ-3B DEB, 40181 is space debris in HEO originally from a launch on Mon, 19 Dec 2011 UTC launched from the Xichang Space Center, China (XSC). Debris objects in space refer to the collection of defunct objects orbiting the Earth. Examples of debris include non-operational satellites, rocket bodies, and fragments generated from explosions, collisions, or faulty payload assembly.

Loading next visibility...
Identifier
40181, 2011-077E
Orbit
HEO
Country
Flag of CNCN / PRC
Related business
Manufacturer
CALT
Mission
Spacecraft
Bus & Motor
Unknown
Mass
Unknown
Launch date (UTC)
2011-12-19 (14 years ago)
Launch vehicle
Unknown
Launch site
Xichang Space Center, China (XSC)
Object type
Payload
Rocket body
Debris
Shape & HBR
Unknown shape, 0.2 m
Radar Cross Section
Medium (>0.1 m² and <1 m²)

Expand to show TLE details & history
Last TLE update: 11 months ago

TLE from 11 months ago
0 CZ-3B DEB
1 40181U 11077E   25067.00191574  .00002681  00000-0  12578-1 0  9998
2 40181  22.5472 326.0058 7473047 215.6392  57.2734  1.97015307 81754
Epoch: 2025-03-08T00:02Z
TLE epoch observation values (Epoch: 2025-03-08T00:02:45.519Z)
Latitude
0.00018°
Longitude
159.38828°
Altitude
23,877.217 km
Speed
3.394 km/s
True Right ascension
21h 44m 07s
True Declination
0° 00' 01"
Sunlit
Object was in daylight at epoch
Visualization orbit readout
Latitude
Unknown
Longitude
Unknown
Altitude
Unknown
Speed
Unknown
Apparent Right ascension
Unknown
Apparent Declination
Unknown
Sunlit
N/A
Visualization observer readout
Local Sidereal Time
20:15:01
Azimuth
Unknown
Elevation
Unknown
Doppler factor
Unknown
Orbital elements
Apogee altitude
40,594.086 km
Perigee altitude
414.988 km
Semi-major axis
26,882.674 km
Eccentricity
0.7473
Inclination
22.5472°
RAAN
326.0058°
Arg. of periapsis
215.6392°
True anomaly
144.31113°
Mean anomaly
57.2734°
Eccentric anomaly
99.5032°
Mean motion
0.49242 °/min
Orbital period
731.09 mins
BSTAR
0.012578
Loading maneuver chart data...
Computing Atmospheric mass density...
Loading historical data...
Loading historical data...
Loading historical data...
Loading historical data...
Loading historical data...
Loading historical data...
Loading historical data...

Documentation

Showing up to 5 results
|